| time (UTC) | temp F | wind direction | speed knots | gust knots | rain 1hr in | rain 24hr in | rain mn in | humidity % | barometer mb |
| 20260505140505 | 77 | 144 | 7.8 | 0.0 | 0.00 | 0.00 | 0.00 | 80 | 1009.3 |
| 20260505125005 | 74 | 177 | 11.3 | 0.0 | 0.00 | 0.00 | 0.00 | 85 | 1009.3 |
| 20260505124505 | 74 | 165 | 7.8 | 0.0 | 0.00 | 0.00 | 0.00 | 86 | 1009.3 |
| 20260505124005 | 74 | 106 | 3.5 | 0.0 | 0.00 | 0.00 | 0.00 | 86 | 1009.3 |
| 20260505123712 | 74 | 144 | 11.3 | 0.0 | 0.00 | 0.00 | 0.00 | 86 | 1009.3 |
| 20260505123211 | 74 | 94 | 7.8 | 0.0 | 0.00 | 0.00 | 0.00 | 86 | 1009.3 |
| 20260505122505 | 74 | 123 | 7.8 | 0.0 | 0.00 | 0.00 | 0.00 | 86 | 1009.3 |
| 20260505122005 | 74 | 117 | 11.3 | 0.0 | 0.00 | 0.00 | 0.00 | 86 | 1009.3 |
| 20260505121505 | 74 | 99 | 11.3 | 0.0 | 0.00 | 0.00 | 0.00 | 86 | 1009.6 |
| 20260505121005 | 74 | 138 | 15.6 | 0.0 | 0.00 | 0.00 | 0.00 | 86 | 1009.3 |
| 20260505120505 | 74 | 96 | 15.6 | 0.0 | 0.00 | 0.00 | 0.00 | 86 | 1009.3 |
| 20260505120213 | 74 | 141 | 7.8 | 0.0 | 0.00 | 0.00 | 0.00 | 86 | 1008.9 |
| 20260505115504 | 74 | 164 | 7.8 | 0.0 | 0.00 | 0.00 | 0.00 | 86 | 1008.9 |
| 20260505115005 | 74 | 113 | 3.5 | 0.0 | 0.00 | 0.00 | 0.00 | 86 | 1009.3 |
| 20260505114505 | 74 | 170 | 7.8 | 0.0 | 0.00 | 0.00 | 0.00 | 86 | 1009.3 |
| 20260505114005 | 74 | 130 | 3.5 | 0.0 | 0.00 | 0.00 | 0.00 | 86 | 1009.3 |
| 20260505113505 | 74 | 166 | 7.8 | 0.0 | 0.00 | 0.00 | 0.00 | 86 | 1009.3 |
| 20260505113005 | 74 | 138 | 11.3 | 0.0 | 0.00 | 0.00 | 0.00 | 86 | 1008.9 |
| 20260505112712 | 74 | 71 | 7.8 | 0.0 | 0.00 | 0.00 | 0.00 | 86 | 1008.9 |
| 20260505112211 | 74 | 55 | 15.6 | 0.0 | 0.00 | 0.00 | 0.00 | 86 | 1008.9 |
| 20260505111505 | 74 | 143 | 3.5 | 0.0 | 0.00 | 0.00 | 0.00 | 86 | 1009.3 |
| 20260505111005 | 74 | 161 | 7.8 | 0.0 | 0.00 | 0.00 | 0.00 | 86 | 1009.3 |
| 20260505110505 | 74 | 182 | 7.8 | 0.0 | 0.00 | 0.00 | 0.00 | 85 | 1009.6 |
| 20260505102005 | 74 | 80 | 7.8 | 0.0 | 0.00 | 0.00 | 0.00 | 87 | 1009.3 |
| 20260505101505 | 74 | 104 | 0.0 | 0.0 | 0.00 | 0.00 | 0.00 | 87 | 1009.3 |
| 20260505101005 | 74 | 123 | 3.5 | 0.0 | 0.00 | 0.00 | 0.00 | 87 | 1009.3 |
| 20260505100505 | 74 | 20 | 7.8 | 0.0 | 0.00 | 0.00 | 0.00 | 87 | 1009.3 |
| 20260505100212 | 74 | 37 | 23.5 | 0.0 | 0.00 | 0.00 | 0.00 | 87 | 1009.3 |
| 20260505095505 | 74 | 171 | 7.8 | 0.0 | 0.00 | 0.00 | 0.00 | 87 | 1009.3 |
| 20260505095005 | 74 | 96 | 7.8 | 0.0 | 0.00 | 0.00 | 0.00 | 87 | 1009.3 |
| 20260505094505 | 74 | 117 | 7.8 | 0.0 | 0.00 | 0.00 | 0.00 | 87 | 1009.3 |
| 20260505094005 | 74 | 80 | 11.3 | 0.0 | 0.00 | 0.00 | 0.00 | 86 | 1009.3 |
| 20260505093505 | 74 | 177 | 11.3 | 0.0 | 0.00 | 0.00 | 0.00 | 86 | 1008.9 |
| 20260505093005 | 74 | 55 | 3.5 | 0.0 | 0.00 | 0.00 | 0.00 | 86 | 1008.9 |
| 20260505092505 | 74 | 84 | 15.6 | 0.0 | 0.00 | 0.00 | 0.00 | 86 | 1009.3 |
| 20260505092005 | 74 | 163 | 7.8 | 0.0 | 0.00 | 0.00 | 0.00 | 86 | 1009.6 |
| 20260505091505 | 74 | 169 | 11.3 | 0.0 | 0.00 | 0.00 | 0.00 | 86 | 1009.3 |
| 20260505091005 | 74 | 149 | 20.0 | 0.0 | 0.00 | 0.00 | 0.00 | 86 | 1009.3 |
| 20260505090505 | 74 | 155 | 7.8 | 0.0 | 0.00 | 0.00 | 0.00 | 86 | 1009.3 |
| 20260505090005 | 74 | 67 | 7.8 | 0.0 | 0.00 | 0.00 | 0.00 | 86 | 1009.6 |
| 20260505085505 | 74 | 158 | 7.8 | 0.0 | 0.00 | 0.00 | 0.00 | 86 | 1009.3 |
| 20260505085005 | 74 | 141 | 11.3 | 0.0 | 0.00 | 0.00 | 0.00 | 85 | 1009.3 |
| 20260505084505 | 74 | 73 | 3.5 | 0.0 | 0.00 | 0.00 | 0.00 | 85 | 1009.6 |
| 20260505084005 | 74 | 154 | 11.3 | 0.0 | 0.00 | 0.00 | 0.00 | 85 | 1009.6 |
| 20260505083505 | 74 | 91 | 11.3 | 0.0 | 0.00 | 0.00 | 0.00 | 85 | 1009.9 |
| 20260505083005 | 74 | 148 | 27.8 | 0.0 | 0.00 | 0.00 | 0.00 | 85 | 1009.9 |
| 20260505082505 | 74 | 109 | 7.8 | 0.0 | 0.00 | 0.00 | 0.00 | 85 | 1009.9 |
| 20260505082004 | 74 | 143 | 3.5 | 0.0 | 0.00 | 0.00 | 0.00 | 85 | 1009.9 |
| 20260505081505 | 74 | 160 | 11.3 | 0.0 | 0.00 | 0.00 | 0.00 | 85 | 1009.9 |
| 20260505081005 | 74 | 113 | 11.3 | 0.0 | 0.00 | 0.00 | 0.00 | 85 | 1009.9 |
| 20260505080505 | 74 | 166 | 7.8 | 0.0 | 0.00 | 0.00 | 0.00 | 85 | 1009.9 |
| 20260505080005 | 74 | 131 | 15.6 | 0.0 | 0.00 | 0.00 | 0.00 | 85 | 1010.3 |
| 20260505075505 | 74 | 165 | 11.3 | 0.0 | 0.00 | 0.00 | 0.00 | 86 | 1010.6 |
| 20260505075005 | 74 | 127 | 0.0 | 0.0 | 0.00 | 0.00 | 0.00 | 86 | 1010.3 |
| 20260505074505 | 74 | 138 | 3.5 | 0.0 | 0.00 | 0.00 | 0.00 | 86 | 1010.3 |
| 20260505074005 | 74 | 108 | 0.0 | 0.0 | 0.00 | 0.00 | 0.00 | 86 | 1010.3 |
| 20260505073505 | 74 | 138 | 3.5 | 0.0 | 0.00 | 0.00 | 0.00 | 86 | 1010.3 |
| 20260505073213 | 74 | 131 | 11.3 | 0.0 | 0.00 | 0.00 | 0.00 | 86 | 1010.3 |
| 20260505072712 | 74 | 100 | 7.8 | 0.0 | 0.00 | 0.00 | 0.00 | 86 | 1010.3 |
| 20260505072005 | 73 | 151 | 15.6 | 0.0 | 0.00 | 0.00 | 0.00 | 86 | 1009.9 |
| 20260505071505 | 73 | 111 | 0.0 | 0.0 | 0.00 | 0.00 | 0.00 | 86 | 1010.3 |
| 20260505071005 | 73 | 139 | 7.8 | 0.0 | 0.00 | 0.00 | 0.00 | 86 | 1010.3 |
| 20260505070505 | 73 | 118 | 7.8 | 0.0 | 0.00 | 0.00 | 0.00 | 86 | 1010.6 |
| 20260505070005 | 73 | 108 | 0.0 | 0.0 | 0.00 | 0.00 | 0.00 | 86 | 1010.6 |
| 20260505065505 | 73 | 106 | 0.0 | 0.0 | 0.00 | 0.00 | 0.00 | 86 | 1011.0 |
| 20260505065005 | 73 | 117 | 7.8 | 0.0 | 0.00 | 0.00 | 0.00 | 86 | 1011.0 |
| 20260505064505 | 73 | 98 | 0.0 | 0.0 | 0.00 | 0.00 | 0.00 | 86 | 1011.0 |
| 20260505064005 | 73 | 119 | 0.0 | 0.0 | 0.00 | 0.00 | 0.00 | 85 | 1011.3 |
| 20260505063505 | 73 | 95 | 0.0 | 0.0 | 0.00 | 0.00 | 0.00 | 85 | 1011.0 |
| 20260505063213 | 73 | 105 | 3.5 | 0.0 | 0.00 | 0.00 | 0.00 | 85 | 1011.0 |
| 20260505062505 | 73 | 87 | 0.0 | 0.0 | 0.00 | 0.00 | 0.00 | 85 | 1011.0 |
| 20260505062005 | 73 | 123 | 3.5 | 0.0 | 0.00 | 0.00 | 0.00 | 85 | 1011.3 |
| 20260505061712 | 73 | 136 | 7.8 | 0.0 | 0.00 | 0.00 | 0.00 | 85 | 1011.3 |
| 20260505061005 | 73 | 108 | 3.5 | 0.0 | 0.00 | 0.00 | 0.00 | 84 | 1011.3 |
| 20260505060712 | 73 | 9 | 11.3 | 0.0 | 0.00 | 0.00 | 0.00 | 84 | 1011.3 |
| 20260505060005 | 73 | 160 | 11.3 | 0.0 | 0.00 | 0.00 | 0.00 | 84 | 1011.3 |
| 20260505055505 | 73 | 123 | 3.5 | 0.0 | 0.00 | 0.00 | 0.00 | 84 | 1011.6 |
| 20260505055213 | 73 | 71 | 11.3 | 0.0 | 0.00 | 0.00 | 0.00 | 84 | 1011.6 |
| 20260505054505 | 73 | 164 | 7.8 | 0.0 | 0.00 | 0.00 | 0.00 | 84 | 1011.6 |
| 20260505054213 | 73 | 80 | 7.8 | 0.0 | 0.00 | 0.00 | 0.00 | 84 | 1011.6 |
| 20260505053505 | 73 | 76 | 11.3 | 0.0 | 0.00 | 0.00 | 0.00 | 85 | 1011.6 |
| 20260505053004 | 73 | 77 | 3.5 | 0.0 | 0.00 | 0.00 | 0.00 | 85 | 1011.6 |
| 20260505052505 | 73 | 73 | 7.8 | 0.0 | 0.00 | 0.00 | 0.00 | 85 | 1011.6 |
| 20260505052005 | 73 | 106 | 0.0 | 0.0 | 0.00 | 0.00 | 0.00 | 84 | 1012.0 |
| 20260505051506 | 73 | 39 | 15.6 | 0.0 | 0.00 | 0.00 | 0.00 | 84 | 1012.0 |
| 20260505051004 | 73 | 112 | 11.3 | 0.0 | 0.00 | 0.00 | 0.00 | 84 | 1011.6 |
| 20260505050505 | 73 | 87 | 0.0 | 0.0 | 0.00 | 0.00 | 0.00 | 83 | 1012.0 |
| 20260505041505 | 74 | 129 | 3.5 | 0.0 | 0.00 | 0.00 | 0.00 | 81 | 1012.0 |
| 20260505041005 | 74 | 43 | 3.5 | 0.0 | 0.00 | 0.00 | 0.00 | 81 | 1012.0 |
| 20260505040505 | 74 | 58 | 11.3 | 0.0 | 0.00 | 0.00 | 0.00 | 80 | 1012.0 |
| 20260505040212 | 74 | 95 | 3.5 | 0.0 | 0.00 | 0.00 | 0.00 | 80 | 1012.3 |
| 20260505035505 | 74 | 160 | 0.0 | 0.0 | 0.00 | 0.00 | 0.00 | 80 | 1012.0 |
| 20260505035004 | 74 | 73 | 3.5 | 0.0 | 0.00 | 0.00 | 0.00 | 80 | 1012.0 |
| 20260505034505 | 74 | 83 | 7.8 | 0.0 | 0.00 | 0.00 | 0.00 | 79 | 1012.3 |
| 20260505034005 | 74 | 80 | 3.5 | 0.0 | 0.00 | 0.00 | 0.00 | 79 | 1012.3 |
| 20260505033505 | 74 | 50 | 7.8 | 0.0 | 0.00 | 0.00 | 0.00 | 79 | 1012.3 |
| 20260505033005 | 74 | 145 | 11.3 | 0.0 | 0.00 | 0.00 | 0.00 | 78 | 1012.3 |
| 20260505032713 | 74 | 80 | 3.5 | 0.0 | 0.00 | 0.00 | 0.00 | 78 | 1012.3 |
| 20260505032005 | 74 | 46 | 3.5 | 0.0 | 0.00 | 0.00 | 0.00 | 77 | 1012.0 |
| 20260505031505 | 74 | 97 | 3.5 | 0.0 | 0.00 | 0.00 | 0.00 | 77 | 1012.0 |
| 20260505031004 | 74 | 66 | 7.8 | 0.0 | 0.00 | 0.00 | 0.00 | 77 | 1012.0 |
| 20260505030505 | 74 | 73 | 11.3 | 0.0 | 0.00 | 0.00 | 0.00 | 77 | 1012.3 |
| 20260505030005 | 74 | 92 | 7.8 | 0.0 | 0.00 | 0.00 | 0.00 | 77 | 1012.3 |
| 20260505025505 | 74 | 34 | 23.5 | 0.0 | 0.00 | 0.00 | 0.00 | 77 | 1012.0 |
| 20260505025212 | 74 | 163 | 11.3 | 0.0 | 0.00 | 0.00 | 0.00 | 77 | 1012.3 |
| 20260505024505 | 74 | 160 | 7.8 | 0.0 | 0.00 | 0.00 | 0.00 | 77 | 1012.0 |
| 20260505024005 | 74 | 111 | 0.0 | 0.0 | 0.00 | 0.00 | 0.00 | 77 | 1012.0 |
| 20260505023505 | 74 | 76 | 3.5 | 0.0 | 0.00 | 0.00 | 0.00 | 76 | 1011.6 |
| 20260505023212 | 74 | 112 | 7.8 | 0.0 | 0.00 | 0.00 | 0.00 | 76 | 1012.0 |
| 20260505022505 | 74 | 90 | 7.8 | 0.0 | 0.00 | 0.00 | 0.00 | 76 | 1011.6 |
| 20260505022005 | 74 | 87 | 3.5 | 0.0 | 0.00 | 0.00 | 0.00 | 75 | 1011.6 |
| 20260505021505 | 74 | 12 | 15.6 | 0.0 | 0.00 | 0.00 | 0.00 | 75 | 1011.6 |
| 20260505021005 | 74 | 125 | 11.3 | 0.0 | 0.00 | 0.00 | 0.00 | 75 | 1011.3 |
| 20260505020505 | 74 | 97 | 0.0 | 0.0 | 0.00 | 0.00 | 0.00 | 75 | 1011.3 |
| 20260505020005 | 74 | 136 | 7.8 | 0.0 | 0.00 | 0.00 | 0.00 | 74 | 1011.3 |
| 20260505015712 | 74 | 71 | 3.5 | 0.0 | 0.00 | 0.00 | 0.00 | 74 | 1011.3 |
| 20260505015005 | 74 | 77 | 3.5 | 0.0 | 0.00 | 0.00 | 0.00 | 74 | 1011.3 |
| 20260505014712 | 75 | 150 | 3.5 | 0.0 | 0.00 | 0.00 | 0.00 | 73 | 1011.3 |
| 20260505014005 | 75 | 80 | 11.3 | 0.0 | 0.00 | 0.00 | 0.00 | 73 | 1011.3 |
| 20260505013505 | 75 | 78 | 0.0 | 0.0 | 0.00 | 0.00 | 0.00 | 73 | 1011.3 |
| 20260505013211 | 75 | 27 | 7.8 | 0.0 | 0.00 | 0.00 | 0.00 | 73 | 1011.3 |
| 20260505012505 | 75 | 19 | 11.3 | 0.0 | 0.00 | 0.00 | 0.00 | 73 | 1011.0 |
| 20260505012005 | 75 | 83 | 3.5 | 0.0 | 0.00 | 0.00 | 0.00 | 72 | 1011.3 |
| 20260505011505 | 75 | 46 | 11.3 | 0.0 | 0.00 | 0.00 | 0.00 | 72 | 1011.3 |
| 20260505011005 | 75 | 102 | 3.5 | 0.0 | 0.00 | 0.00 | 0.00 | 71 | 1011.6 |
| 20260505010505 | 76 | 41 | 11.3 | 0.0 | 0.00 | 0.00 | 0.00 | 71 | 1011.3 |
| 20260505010005 | 76 | 58 | 7.8 | 0.0 | 0.00 | 0.00 | 0.00 | 71 | 1011.3 |
| 20260505005505 | 76 | 59 | 0.0 | 0.0 | 0.00 | 0.00 | 0.00 | 70 | 1011.3 |
| 20260505005213 | 76 | 103 | 15.6 | 0.0 | 0.00 | 0.00 | 0.00 | 70 | 1011.6 |
| 20260505004712 | 77 | 91 | 7.8 | 0.0 | 0.00 | 0.00 | 0.00 | 70 | 1011.3 |
| 20260505004005 | 77 | 52 | 7.8 | 0.0 | 0.00 | 0.00 | 0.00 | 69 | 1011.3 |
| 20260505003712 | 77 | 122 | 3.5 | 0.0 | 0.00 | 0.00 | 0.00 | 69 | 1011.3 |
| 20260505003005 | 77 | 163 | 11.3 | 0.0 | 0.00 | 0.00 | 0.00 | 68 | 1011.3 |
| 20260505002505 | 77 | 92 | 7.8 | 0.0 | 0.00 | 0.00 | 0.00 | 68 | 1011.3 |
| 20260505002213 | 77 | 0 | 0.0 | 0.0 | 0.00 | 0.00 | 0.00 | 67 | 1011.0 |
| 20260505001505 | 77 | 193 | 7.8 | 0.0 | 0.00 | 0.00 | 0.00 | 67 | 1011.3 |
| 20260505001005 | 77 | 132 | 3.5 | 0.0 | 0.00 | 0.00 | 0.00 | 67 | 1011.3 |
| 20260505000505 | 77 | 65 | 11.3 | 0.0 | 0.00 | 0.00 | 0.00 | 67 | 1011.3 |
| 20260505000005 | 77 | 84 | 7.8 | 0.0 | 0.00 | 0.00 | 0.00 | 66 | 1011.6 |
| 20260504235505 | 77 | 117 | 3.5 | 0.0 | 0.00 | 0.00 | 0.00 | 66 | 1011.6 |
| 20260504235005 | 78 | 125 | 3.5 | 0.0 | 0.00 | 0.00 | 0.00 | 66 | 1011.3 |
| 20260504234505 | 78 | 93 | 3.5 | 0.0 | 0.00 | 0.00 | 0.00 | 66 | 1011.3 |
| 20260504234005 | 78 | 118 | 11.3 | 0.0 | 0.00 | 0.00 | 0.00 | 66 | 1011.6 |
| 20260504233505 | 78 | 173 | 3.5 | 0.0 | 0.00 | 0.00 | 0.00 | 65 | 1011.3 |
| 20260504233005 | 78 | 120 | 7.8 | 0.0 | 0.00 | 0.00 | 0.00 | 65 | 1011.3 |
| 20260504232505 | 79 | 116 | 7.8 | 0.0 | 0.00 | 0.00 | 0.00 | 65 | 1011.3 |
| 20260504232005 | 79 | 123 | 3.5 | 0.0 | 0.00 | 0.00 | 0.00 | 65 | 1011.6 |
| 20260504231505 | 79 | 76 | 15.6 | 0.0 | 0.00 | 0.00 | 0.00 | 64 | 1011.6 |
| 20260504231213 | 79 | 323 | 3.5 | 0.0 | 0.00 | 0.00 | 0.00 | 64 | 1011.3 |
| 20260504230505 | 79 | 121 | 7.8 | 0.0 | 0.00 | 0.00 | 0.00 | 64 | 1011.3 |
| 20260504230005 | 79 | 42 | 11.3 | 0.0 | 0.00 | 0.00 | 0.00 | 64 | 1011.6 |
| 20260504225711 | 80 | 86 | 3.5 | 0.0 | 0.00 | 0.00 | 0.00 | 63 | 1011.6 |
| 20260504225005 | 80 | 74 | 11.3 | 0.0 | 0.00 | 0.00 | 0.00 | 63 | 1011.6 |
| 20260504224505 | 80 | 101 | 3.5 | 0.0 | 0.00 | 0.00 | 0.00 | 62 | 1011.6 |
| 20260504224212 | 80 | 152 | 11.3 | 0.0 | 0.00 | 0.00 | 0.00 | 63 | 1011.6 |
| 20260504223505 | 80 | 74 | 11.3 | 0.0 | 0.00 | 0.00 | 0.00 | 63 | 1011.6 |
| 20260504223005 | 80 | 102 | 11.3 | 0.0 | 0.00 | 0.00 | 0.00 | 62 | 1011.6 |
| 20260504222505 | 80 | 71 | 7.8 | 0.0 | 0.00 | 0.00 | 0.00 | 62 | 1011.6 |
| 20260504222005 | 80 | 90 | 7.8 | 0.0 | 0.00 | 0.00 | 0.00 | 61 | 1011.6 |
| 20260504221505 | 80 | 310 | 11.3 | 0.0 | 0.00 | 0.00 | 0.00 | 62 | 1011.6 |
| 20260504221005 | 80 | 120 | 7.8 | 0.0 | 0.00 | 0.00 | 0.00 | 61 | 1011.6 |
| 20260504220504 | 80 | 141 | 23.5 | 0.0 | 0.00 | 0.00 | 0.00 | 59 | 1011.6 |
| 20260504220005 | 81 | 126 | 15.6 | 0.0 | 0.00 | 0.00 | 0.00 | 58 | 1011.6 |
| 20260504215505 | 81 | 150 | 0.0 | 0.0 | 0.00 | 0.00 | 0.00 | 60 | 1011.6 |
| 20260504215212 | 80 | 109 | 3.5 | 0.0 | 0.00 | 0.00 | 0.00 | 60 | 1012.0 |
| 20260504214504 | 80 | 107 | 11.3 | 0.0 | 0.00 | 0.00 | 0.00 | 60 | 1011.6 |
| 20260504214005 | 80 | 104 | 7.8 | 0.0 | 0.00 | 0.00 | 0.00 | 60 | 1011.6 |
| 20260504213505 | 80 | 357 | 3.5 | 0.0 | 0.00 | 0.00 | 0.00 | 60 | 1011.6 |
| 20260504213005 | 81 | 131 | 11.3 | 0.0 | 0.00 | 0.00 | 0.00 | 60 | 1011.6 |
| 20260504212505 | 80 | 116 | 0.0 | 0.0 | 0.00 | 0.00 | 0.00 | 61 | 1011.6 |
| 20260504212005 | 80 | 64 | 20.0 | 0.0 | 0.00 | 0.00 | 0.00 | 60 | 1012.0 |
| 20260504211505 | 80 | 60 | 7.8 | 0.0 | 0.00 | 0.00 | 0.00 | 61 | 1012.0 |
| 20260504211005 | 80 | 47 | 15.6 | 0.0 | 0.00 | 0.00 | 0.00 | 60 | 1012.3 |
| 20260504210505 | 80 | 77 | 27.8 | 0.0 | 0.00 | 0.00 | 0.00 | 59 | 1012.3 |
| 20260504210005 | 80 | 76 | 3.5 | 0.0 | 0.00 | 0.00 | 0.00 | 60 | 1012.3 |
| 20260504205504 | 80 | 63 | 7.8 | 0.0 | 0.00 | 0.00 | 0.00 | 61 | 1012.3 |